Location: Newark
(36.0797°N, 3.9744°E)
Time: 13:00:24
(UTC+00:00)

Tiros 1 - Pass Details

Date: 12 December 2019
Orbit: 630 x 664 km, 48.4° (Epoch: 18 January)

Event Time Altitude Azimuth Distance (km) Brightness Sun altitude
Exits shadow 03:16:54 10° 92° (E) 2,023 10.3 -41.2°
Drops below altitude 10° 03:17:02 10° 91° (E) 2,053 10.4 -41.2°
Sets 03:20:04 0° 71° (ENE) 2,952 11.3 -40.6°
